[[{"header":{"parameterUnit":"m.s-1","parameterCategory":1,"la1":30.2991,"la2":30.254,"lo1":-89.0895,"lo2":-89.0444,"dy":0.0017,"dx":0.0017,"nx":28,"ny":28,"refTime":"2024-03-26T03:00:00:Z","depth":0,"parameterNumber":2,"parameterNumberName":"U-component_of_WINDS"},"data":[0,0,0,0,0,0,0,0,0,0,0,0,0,0,0,0,0,0,0,0,0,0,0,0,0,0,0,0,0,0,0,0,0,0,0,0,0,0,0,0,0,0,0,0,0,0,0,0,0,0,0,0,0,0,0,0,0,0,-0.273,-0.273,0,-0.2726,-0.2726,-0.2726,-0.2732,-0.2732,-0.2732,-0.2732,-0.2729,-0.2729,-0.2728,0,0,0,0,0,0,0,0,0,0,0,0,0,-0.2743,-0.2742,-0.273,-0.273,-0.273,-0.2726,-0.2726,-0.2726,-0.2732,-0.2732,-0.2732,-0.2732,-0.2729,-0.2729,-0.2728,0,0,0,0,0,0,0,0,0,0,0,0,0,-0.2738,-0.2742,-0.273,-0.2732,-0.2732,-0.2726,-0.2726,-0.2726,-0.2731,-0.2732,-0.2732,-0.2732,-0.2729,-0.2729,-0.2728,-0.272,0,0,-0.2727,-0.2727,0,0,0,0,0,0,0,0,-0.2738,-0.2737,-0.2732,-0.2732,-0.2732,-0.273,-0.2729,-0.2724,-0.2731,-0.2732,-0.2732,-0.2732,-0.2729,-0.2729,-0.2727,-0.272,-0.272,-0.2727,-0.2727,-0.2727,-0.2727,0,0,0,0,0,0,0,-0.2738,-0.2737,-0.2728,-0.2732,-0.2732,-0.2733,-0.2733,-0.2728,-0.2729,-0.2732,-0.2732,-0.2732,-0.2729,-0.2728,-0.2727,-0.272,-0.2727,-0.2727,-0.2727,-0.2726,-0.2706,-0.2706,0,0,0,0,0,0,-0.2738,-0.2738,-0.2728,-0.2728,-0.2736,-0.2733,-0.2733,-0.273,-0.2729,-0.2729,-0.2731,-0.2732,-0.2728,-0.2728,-0.2727,-0.2718,-0.2727,-0.2726,-0.2726,-0.2706,-0.2706,-0.2706,0,0,0,0,0,0,-0.2739,-0.2737,-0.2729,-0.2733,-0.2732,-0.2732,-0.273,-0.273,-0.2728,-0.2729,-0.2729,-0.273,-0.2728,-0.2728,-0.2722,-0.2718,-0.2726,-0.2726,-0.2707,-0.2706,-0.2706,-0.2699,0,0,0,0,0,0,-0.2739,-0.2737,-0.2734,-0.2733,-0.2732,-0.2723,-0.2729,-0.273,-0.2728,-0.2728,-0.2727,-0.2727,-0.2729,-0.2722,-0.2722,-0.2718,-0.2725,-0.2707,-0.2707,-0.2706,-0.27,-0.2699,-0.2698,0,0,0,0,0,-0.2739,-0.2732,-0.2734,-0.2733,-0.2728,-0.2723,-0.2722,-0.2724,-0.2727,-0.2724,-0.2724,-0.2727,-0.2718,-0.2722,-0.2721,-0.2717,-0.2707,-0.2707,-0.2706,-0.27,-0.2699,-0.2698,0,0,0,0,0,0,-0.2733,-0.2732,-0.2734,-0.2726,-0.2725,-0.2724,-0.272,-0.2722,-0.272,-0.272,-0.2723,-0.2722,-0.2716,-0.2716,-0.272,-0.2709,-0.2714,-0.2713,-0.271,-0.2708,-0.2707,-0.2708,-0.2725,0,0,0,0,0,-0.2731,-0.2727,-0.2726,-0.272,-0.2719,-0.2719,-0.2717,-0.2719,-0.2717,-0.2717,-0.2716,-0.2715,-0.2712,-0.271,-0.2707,-0.27,-0.27,-0.2696,-0.2695,-0.2694,-0.2694,-0.269,-0.2689,-0.2704,-0.2704,-0.2704,0,0,-0.2726,-0.2725,-0.2722,-0.2718,-0.2717,-0.2714,-0.2719,-0.2714,-0.2712,-0.2716,-0.2711,-0.271,-0.2709,-0.2703,-0.27,-0.2702,-0.269,-0.2693,-0.2693,-0.2693,-0.269,-0.2688,-0.2687,-0.2703,-0.2703,-0.2703,0,0,-0.2716,-0.2714,-0.2709,-0.2708,-0.2706,-0.2707,-0.2705,-0.2704,-0.2704,-0.2699,-0.2702,-0.2699,-0.2694,-0.2693,-0.2691,-0.2681,-0.2684,-0.268,-0.2675,-0.2671,-0.267,-0.2669,-0.2666,-0.2665,-0.2679,-0.2679,-0.2679,0,-0.271,-0.2705,-0.2706,-0.2702,-0.27,-0.2703,-0.2698,-0.2697,-0.2695,-0.2694,-0.2696,-0.269,-0.2689,-0.2683,-0.268,-0.2679,-0.2678,-0.2681,-0.267,-0.2669,-0.2668,-0.2666,-0.2664,-0.2679,-0.2679,-0.2679,-0.2679,0,-0.2698,-0.2694,-0.269,-0.2688,-0.2686,-0.2681,-0.2682,-0.268,-0.2681,-0.2682,-0.2676,-0.2676,-0.2673,-0.2671,-0.2673,-0.2665,-0.2667,-0.267,-0.2675,-0.2667,-0.2664,-0.2663,-0.2678,-0.2678,-0.2679,-0.2679,0,0,-0.2685,-0.2683,-0.2681,-0.2681,-0.2679,-0.2676,-0.2672,-0.2669,-0.2667,-0.2665,-0.2662,-0.2658,-0.266,-0.2659,-0.266,-0.2657,-0.265,-0.2661,-0.2661,-0.2659,-0.2643,-0.2641,-0.264,-0.2652,-0.2651,-0.2651,-0.2643,0,-0.2675,-0.2667,-0.2669,-0.2661,-0.2658,-0.2661,-0.2657,-0.2656,-0.2656,-0.2654,-0.2654,-0.2651,-0.2655,-0.2654,-0.2651,-0.2652,-0.2647,-0.2652,-0.2649,-0.2649,-0.265,-0.2638,-0.2637,-0.2629,-0.2642,-0.2642,-0.2642,0,-0.2663,-0.2661,-0.2653,-0.2652,-0.2651,-0.2648,-0.2646,-0.2643,-0.2642,-0.2642,-0.2641,-0.2643,-0.2639,-0.2643,-0.2638,-0.2641,-0.264,-0.264,-0.264,-0.2641,-0.2645,-0.2639,-0.2627,-0.2626,-0.264,-0.264,-0.264,0,-0.2655,-0.265,-0.2645,-0.2644,-0.2642,-0.264,-0.264,-0.2639,-0.2637,-0.2635,-0.2634,-0.2632,-0.2631,-0.2629,-0.2631,-0.2634,-0.2626,-0.263,-0.2627,-0.2627,-0.2625,-0.2625,-0.2613,-0.2623,-0.2623,-0.2623,-0.2623,0,-0.2644,-0.264,-0.2641,-0.2638,-0.2633,-0.2635,-0.263,-0.263,-0.2629,-0.2626,-0.2628,-0.2626,-0.2628,-0.2625,-0.2626,-0.2622,-0.2622,-0.2622,-0.2623,-0.2623,-0.2623,-0.2622,-0.2623,-0.2623,-0.2623,-0.2623,-0.2623,0,-0.2634,-0.2635,-0.263,-0.2629,-0.2629,-0.2625,-0.2625,-0.2623,-0.2623,-0.2619,-0.2619,-0.2619,-0.2617,-0.2618,-0.2615,-0.2616,-0.2611,-0.2612,-0.2611,-0.2612,-0.2609,-0.2609,-0.2596,-0.2595,-0.2605,-0.2605,-0.2605,0,-0.2628,-0.2625,-0.2624,-0.2622,-0.2621,-0.2619,-0.2617,-0.2618,-0.2617,-0.2615,-0.2613,-0.2611,-0.2609,-0.2605,-0.2605,-0.2603,-0.2604,-0.26,-0.2604,-0.2604,-0.2605,-0.2606,-0.2606,-0.2599,-0.2599,-0.2599,-0.2599,0,-0.2617,-0.2618,-0.2615,-0.2613,-0.2611,-0.261,-0.2608,-0.2607,-0.2608,-0.2606,-0.2604,-0.2602,-0.26,-0.2597,-0.2596,-0.2595,-0.2598,-0.2598,-0.2597,-0.2597,-0.2597,-0.2598,-0.261,-0.2598,-0.2598,-0.2598,-0.2598,-0.2598,-0.261,-0.2607,-0.2606,-0.2604,-0.2603,-0.2601,-0.2599,-0.2599,-0.2597,-0.2595,-0.2596,-0.2593,-0.2592,-0.259,-0.2589,-0.2587,-0.2589,-0.2588,-0.2588,-0.2587,-0.2587,-0.2597,-0.2587,-0.2587,-0.2587,-0.2587,-0.2587,0,-0.26,-0.2599,-0.2597,-0.2595,-0.2593,-0.2595,-0.2593,-0.2592,-0.2589,-0.2588,-0.2586,-0.2584,-0.2581,-0.2582,-0.258,-0.2578,-0.2579,-0.2578,-0.2578,-0.2578,-0.2585,-0.2587,-0.2577,-0.2577,-0.2577,-0.2577,-0.2577,-0.2577,-0.2594,-0.259,-0.2591,-0.2586,-0.2586,-0.2583,-0.2582,-0.2581,-0.258,-0.2577,-0.2575,-0.2575,-0.2575,-0.2573,-0.2571,-0.2571,-0.2571,-0.2569,-0.257,-0.2577,-0.2578,-0.2579,-0.258,-0.2569,-0.2569,-0.2563,-0.2563,-0.2563]},{"header":{"parameterUnit":"m.s-1","parameterCategory":1,"la1":30.2991,"la2":30.254,"lo1":-89.0895,"lo2":-89.0444,"dy":0.0017,"dx":0.0017,"nx":28,"ny":28,"refTime":"2024-03-26T03:00:00:Z","depth":0,"parameterNumber":3,"parameterNumberName":"V-component_of_WINDS"},"data":[0,0,0,0,0,0,0,0,0,0,0,0,0,0,0,0,0,0,0,0,0,0,0,0,0,0,0,0,0,0,0,0,0,0,0,0,0,0,0,0,0,0,0,0,0,0,0,0,0,0,0,0,0,0,0,0,0,0,-2.0977,-2.0977,0,-2.0984,-2.0984,-2.0984,-2.097,-2.0969,-2.0969,-2.0968,-2.0975,-2.0976,-2.0976,0,0,0,0,0,0,0,0,0,0,0,0,0,-2.0948,-2.0949,-2.0977,-2.0977,-2.0977,-2.0984,-2.0984,-2.0984,-2.097,-2.0969,-2.0968,-2.0968,-2.0975,-2.0976,-2.0976,0,0,0,0,0,0,0,0,0,0,0,0,0,-2.0959,-2.0949,-2.0977,-2.097,-2.097,-2.0984,-2.0984,-2.0984,-2.097,-2.0969,-2.0968,-2.0968,-2.0975,-2.0975,-2.0976,-2.0997,0,0,-2.0979,-2.098,0,0,0,0,0,0,0,0,-2.0958,-2.096,-2.0971,-2.0971,-2.097,-2.0975,-2.0977,-2.0988,-2.097,-2.097,-2.0968,-2.0967,-2.0976,-2.0976,-2.0979,-2.0997,-2.0997,-2.0979,-2.098,-2.098,-2.0981,0,0,0,0,0,0,0,-2.0957,-2.0959,-2.098,-2.0971,-2.0971,-2.0967,-2.0967,-2.0979,-2.0977,-2.097,-2.0969,-2.097,-2.0975,-2.0979,-2.0979,-2.0997,-2.0979,-2.098,-2.0981,-2.0981,-2.1031,-2.1032,0,0,0,0,0,0,-2.0957,-2.0959,-2.0979,-2.098,-2.0962,-2.0968,-2.0969,-2.0974,-2.0977,-2.0976,-2.097,-2.0969,-2.0977,-2.0978,-2.098,-2.1004,-2.098,-2.0981,-2.0982,-2.1031,-2.1032,-2.1032,0,0,0,0,0,0,-2.0957,-2.0959,-2.0979,-2.0969,-2.0971,-2.0969,-2.0976,-2.0975,-2.0978,-2.0977,-2.0976,-2.0974,-2.0977,-2.0978,-2.0992,-2.1004,-2.0982,-2.0983,-2.103,-2.1031,-2.1032,-2.1052,0,0,0,0,0,0,-2.0956,-2.0959,-2.0968,-2.0969,-2.0972,-2.0993,-2.0976,-2.0976,-2.098,-2.0978,-2.0981,-2.098,-2.0976,-2.0991,-2.0993,-2.1005,-2.0983,-2.1029,-2.103,-2.1032,-2.105,-2.1054,-2.1056,0,0,0,0,0,-2.0955,-2.0973,-2.0968,-2.0971,-2.0982,-2.0993,-2.0995,-2.099,-2.0981,-2.0989,-2.0988,-2.098,-2.1002,-2.0993,-2.0995,-2.1007,-2.1028,-2.103,-2.1032,-2.1049,-2.1053,-2.1056,0,0,0,0,0,0,-2.0973,-2.0973,-2.0968,-2.0987,-2.099,-2.0991,-2.1001,-2.0994,-2.1,-2.0998,-2.0992,-2.0993,-2.1008,-2.1008,-2.0999,-2.1026,-2.1013,-2.1016,-2.1026,-2.1029,-2.1032,-2.1033,-2.0984,0,0,0,0,0,-2.0979,-2.0988,-2.0988,-2.1004,-2.1006,-2.1003,-2.1008,-2.1004,-2.1007,-2.1008,-2.1008,-2.1011,-2.1019,-2.1024,-2.1031,-2.105,-2.105,-2.1059,-2.1062,-2.1064,-2.1067,-2.1077,-2.1081,-2.1038,-2.1038,-2.1038,0,0,-2.0991,-2.0993,-2.0999,-2.1008,-2.101,-2.1019,-2.1004,-2.1015,-2.1022,-2.101,-2.1024,-2.1023,-2.1026,-2.1043,-2.105,-2.1044,-2.1078,-2.1066,-2.1068,-2.107,-2.1079,-2.1083,-2.1086,-2.1039,-2.1039,-2.1039,0,0,-2.1019,-2.1021,-2.1035,-2.1037,-2.1041,-2.1038,-2.1042,-2.1043,-2.1043,-2.1056,-2.1047,-2.1054,-2.1067,-2.107,-2.1073,-2.11,-2.1093,-2.1102,-2.1119,-2.1129,-2.1132,-2.1135,-2.1145,-2.1149,-2.1104,-2.1105,-2.1105,0,-2.1035,-2.1049,-2.1043,-2.1055,-2.1058,-2.1047,-2.1061,-2.1063,-2.1069,-2.1071,-2.1064,-2.108,-2.1081,-2.1098,-2.1104,-2.1107,-2.111,-2.1103,-2.1132,-2.1135,-2.1138,-2.1147,-2.1151,-2.1106,-2.1106,-2.1105,-2.1105,0,-2.1068,-2.1078,-2.1088,-2.1094,-2.1099,-2.1111,-2.1107,-2.1112,-2.1107,-2.1105,-2.1119,-2.112,-2.1126,-2.113,-2.1125,-2.1146,-2.1142,-2.1133,-2.1121,-2.1143,-2.1152,-2.1156,-2.1107,-2.1107,-2.1107,-2.1106,0,0,-2.1109,-2.111,-2.1114,-2.1116,-2.1118,-2.1126,-2.1137,-2.1144,-2.1149,-2.1152,-2.1161,-2.1172,-2.1164,-2.1167,-2.1162,-2.1171,-2.1193,-2.1161,-2.1161,-2.1168,-2.1216,-2.1224,-2.1228,-2.1187,-2.1188,-2.1189,-2.1216,0,-2.1137,-2.1158,-2.1152,-2.1172,-2.1181,-2.117,-2.118,-2.1182,-2.118,-2.1187,-2.1184,-2.1192,-2.1181,-2.1183,-2.119,-2.1189,-2.1203,-2.1186,-2.1197,-2.1197,-2.1198,-2.1233,-2.1241,-2.1267,-2.122,-2.122,-2.1221,0,-2.1174,-2.1179,-2.12,-2.12,-2.1203,-2.1213,-2.1218,-2.1224,-2.1226,-2.1224,-2.1227,-2.122,-2.1231,-2.1217,-2.1231,-2.122,-2.1224,-2.1223,-2.1224,-2.1226,-2.1211,-2.1236,-2.1275,-2.1279,-2.1226,-2.1226,-2.1225,0,-2.1203,-2.1214,-2.1228,-2.123,-2.1231,-2.1237,-2.1237,-2.1238,-2.1242,-2.1246,-2.1249,-2.1254,-2.1257,-2.1261,-2.1256,-2.1246,-2.1271,-2.1257,-2.127,-2.127,-2.1277,-2.1277,-2.1318,-2.1277,-2.1277,-2.1277,-2.1277,0,-2.1236,-2.1249,-2.1241,-2.125,-2.1265,-2.1257,-2.1272,-2.127,-2.1271,-2.1279,-2.1269,-2.1277,-2.1268,-2.1275,-2.1271,-2.1284,-2.1285,-2.1284,-2.1283,-2.1285,-2.1286,-2.1289,-2.1287,-2.1278,-2.1278,-2.1278,-2.1278,0,-2.1271,-2.1266,-2.1281,-2.128,-2.1279,-2.129,-2.1289,-2.1297,-2.1293,-2.1304,-2.1306,-2.1301,-2.1308,-2.1302,-2.131,-2.1307,-2.1324,-2.132,-2.1324,-2.1323,-2.1337,-2.1336,-2.1382,-2.1388,-2.1343,-2.1343,-2.1344,0,-2.1293,-2.1304,-2.1303,-2.1308,-2.1309,-2.1316,-2.132,-2.1312,-2.1317,-2.1319,-2.1326,-2.1333,-2.1338,-2.135,-2.1347,-2.1352,-2.1349,-2.1364,-2.135,-2.1352,-2.135,-2.135,-2.1351,-2.1368,-2.1368,-2.1369,-2.1369,0,-2.1334,-2.133,-2.1337,-2.1342,-2.1347,-2.135,-2.1353,-2.1357,-2.1349,-2.1354,-2.1362,-2.1366,-2.1373,-2.1379,-2.1383,-2.1383,-2.1375,-2.1374,-2.1377,-2.1381,-2.1383,-2.1383,-2.1333,-2.1373,-2.1373,-2.1372,-2.1372,-2.1372,-2.1364,-2.1372,-2.1373,-2.138,-2.1381,-2.1383,-2.1391,-2.1388,-2.1394,-2.14,-2.1394,-2.1403,-2.1403,-2.1408,-2.1409,-2.1416,-2.1409,-2.1414,-2.1416,-2.1417,-2.142,-2.1381,-2.1416,-2.1416,-2.1416,-2.1416,-2.1416,0,-2.1404,-2.1404,-2.141,-2.1414,-2.1419,-2.141,-2.1413,-2.1418,-2.1426,-2.1427,-2.1432,-2.144,-2.1446,-2.1443,-2.1448,-2.1454,-2.145,-2.1456,-2.1456,-2.1456,-2.1425,-2.1422,-2.1459,-2.1459,-2.1459,-2.1459,-2.1459,-2.1459,-2.1426,-2.144,-2.1436,-2.145,-2.1449,-2.1458,-2.1461,-2.1463,-2.1463,-2.1473,-2.1478,-2.1476,-2.1475,-2.148,-2.1485,-2.1484,-2.1487,-2.1494,-2.1491,-2.1462,-2.1458,-2.1454,-2.1451,-2.1494,-2.1494,-2.1522,-2.1522,-2.1523]}]]